Date,TemperatureHighF,TemperatureAvgF,TemperatureLowF,DewpointHighF,DewpointAvgF,DewpointLowF,HumidityHigh,HumidityAvg,HumidityLow,PressureMaxIn,PressureMinIn,WindSpeedMaxMPH,WindSpeedAvgMPH,GustSpeedMaxMPH,PrecipitationSumIn
2013-1-1,31,28,25,14,12,11,56,49,44,0.00,40.00,14,8,29,0.00
2013-1-2,28,25,22,15,14,12,72,62,53,0.00,40.00,7,5,22,0.00
2013-1-3,29,26,22,13,10,6,53,49,44,0.00,40.00,9,5,22,0.00
2013-1-4,23,18,15,7,5,4,62,55,48,0.00,40.00,9,7,22,0.00
2013-1-5,21,18,15,7,6,5,64,58,54,0.00,40.00,7,5,19,0.00
2013-1-6,20,18,15,7,6,4,68,58,53,0.00,40.00,7,4,16,0.00
2013-1-7,20,16,8,9,6,2,77,63,58,0.00,40.00,7,4,14,0.00
2013-1-8,8,1,-2,3,-3,-6,84,83,78,0.00,40.00,6,3,12,0.00
2013-1-14,30,27,24,28,24,19,93,89,81,0.00,40.00,10,9,22,0.00
2013-1-15,24,13,10,19,7,4,86,77,61,0.00,40.00,12,7,22,0.00
2013-1-16,13,10,8,6,4,2,76,74,71,0.00,40.00,5,4,10,0.00
2013-1-23,6,3,-1,-3,-7,-12,66,61,58,0.00,40.00,19,13,29,0.00
2013-1-24,0,-8,-14,-11,-18,-23,65,59,55,0.00,40.00,17,9,24,0.00
2013-1-25,-10,-13,-17,-21,-23,-27,65,60,55,0.00,40.00,7,2,12,0.00
2013-1-26,-14,-22,-27,-24,-30,-34,68,67,57,0.00,40.00,7,2,9,0.00
2013-1-27,-23,-28,-32,-30,-35,-41,68,67,67,0.00,40.00,4,1,7,0.00
2013-1-28,-13,-23,-35,-22,-31,-42,68,65,57,0.00,40.00,11,6,24,0.00
2013-1-29,-8,-12,-16,-16,-20,-24,71,66,63,0.00,40.00,9,5,24,0.00
2013-1-30,6,-2,-9,-3,-9,-16,73,69,66,0.00,40.00,7,5,18,0.00
2013-1-31,8,5,4,3,0,-2,81,79,72,0.00,40.00,8,3,15,0.00
2013-2-1,12,8,4,8,3,-1,83,78,68,0.00,40.00,10,5,17,0.00
2013-2-2,19,16,11,4,2,-1,68,54,45,0.00,40.00,11,6,21,0.00
2013-2-3,20,16,11,10,6,4,78,64,54,0.00,40.00,7,4,12,0.00
2013-2-4,15,10,7,12,6,4,87,84,78,0.00,40.00,6,2,10,0.00
2013-2-5,14,7,4,11,4,0,87,85,83,0.00,40.00,6,2,9,0.00
2013-2-6,8,-2,-7,4,-6,-11,84,82,80,0.00,40.00,6,2,8,0.00
2013-2-7,11,4,-4,7,0,-8,85,81,77,0.00,40.00,7,3,12,0.00
2013-2-8,11,5,0,7,1,-4,85,82,79,0.00,40.00,5,2,10,0.00
2013-2-9,27,22,10,17,14,7,84,69,62,0.00,40.00,11,7,26,0.00
2013-2-10,33,24,11,20,16,5,91,74,58,0.00,40.00,12,6,21,0.00
2013-2-11,20,14,10,18,11,7,90,87,86,0.00,40.00,6,3,9,0.00
2013-2-12,14,12,8,11,9,4,87,86,85,0.00,40.00,5,3,12,0.00
2013-2-13,23,20,14,12,9,6,87,63,53,0.00,40.00,7,5,16,0.00
2013-2-14,24,21,18,9,6,5,59,52,43,0.00,40.00,8,5,20,0.00
2013-2-15,19,4,-6,6,-1,-10,85,80,55,0.00,40.00,12,6,24,0.00
2013-2-16,0,-4,-9,-6,-10,-14,81,77,71,0.00,40.00,6,3,11,0.00
2013-2-17,1,-7,-13,-6,-12,-18,79,77,68,0.00,40.00,13,7,20,0.00
2013-2-18,-12,-16,-20,-17,-21,-25,78,77,76,0.00,40.00,10,4,18,0.00
2013-2-19,-5,-9,-16,-13,-17,-22,77,68,63,0.00,40.00,16,10,22,0.00
2013-2-20,2,-3,-8,-9,-13,-15,75,62,57,0.00,40.00,17,11,23,0.00
2013-2-21,-2,-6,-12,-8,-12,-18,79,77,73,0.00,40.00,11,7,18,0.00
2013-2-22,-9,-13,-16,-14,-18,-21,77,77,76,0.00,40.00,6,3,11,0.00
2013-2-23,6,-2,-9,-3,-10,-15,77,69,64,0.00,40.00,11,8,16,0.00
2013-2-24,6,1,-5,-4,-7,-13,75,66,57,0.00,40.00,7,3,11,0.00
2013-2-25,22,12,-1,6,0,-9,70,59,47,0.00,40.00,7,3,12,0.00
2013-2-26,20,17,12,4,3,1,61,54,49,0.00,40.00,6,4,12,0.00
2013-3-11,19,16,13,7,5,3,71,63,55,0.00,40.00,10,6,14,0.00
2013-3-12,23,16,8,3,-4,-11,62,42,28,0.00,40.00,11,4,15,0.00
2013-3-13,15,7,-5,-7,-14,-22,44,36,30,0.00,40.00,22,11,32,0.00
2013-3-14,17,2,-9,-10,-18,-25,44,38,29,0.00,40.00,19,11,29,0.00
2013-3-15,19,10,4,-10,-15,-18,37,32,25,0.00,40.00,13,8,22,0.00
2013-3-16,22,13,7,-4,-9,-14,39,36,31,0.00,40.00,9,5,24,0.00
2013-3-17,18,12,6,-2,-7,-10,54,43,38,0.00,40.00,6,3,9,0.00
2013-3-18,16,10,4,-4,-7,-11,50,45,39,0.00,40.00,7,4,12,0.00
2013-3-19,14,8,3,-5,-8,-12,53,47,41,0.00,40.00,10,5,16,0.00
2013-3-20,11,3,-5,-1,-8,-14,80,57,45,0.00,40.00,7,4,14,0.00
2013-3-21,20,9,2,11,4,-1,86,79,64,0.00,40.00,6,3,10,0.00
2013-3-22,30,18,10,14,2,-2,88,51,34,0.00,40.00,11,6,24,0.01
2013-3-23,12,-1,-9,9,-11,-18,88,65,36,0.00,40.00,12,6,24,0.01
2013-3-24,8,2,-1,-2,-7,-12,84,66,46,0.00,40.00,9,5,16,0.00
2013-3-25,5,0,-4,1,-4,-8,85,83,77,0.00,40.00,14,7,22,0.00
2013-3-26,0,-5,-8,-8,-12,-16,82,71,54,0.00,40.00,17,10,26,0.00
2013-3-27,10,0,-12,-9,-12,-17,78,58,40,0.00,40.00,7,2,13,0.00
2013-3-28,31,20,4,3,-1,-9,56,39,30,0.00,40.00,6,4,14,0.07
2013-3-29,42,31,23,13,8,3,44,37,29,0.00,40.00,8,4,14,0.01
2013-3-30,39,31,20,13,9,-100,59,42,34,0.00,40.00,7,2,9,0.01
2013-3-31,38,32,27,24,17,11,90,54,44,0.00,40.00,6,2,11,0.00
2013-4-1,37,28,24,27,23,12,93,83,54,0.00,40.00,10,5,15,0.13
2013-4-2,28,24,19,13,8,2,60,50,39,0.00,40.00,11,6,16,0.02
2013-4-3,29,21,14,5,1,-8,53,42,30,0.00,40.00,20,11,30,0.00
2013-4-4,29,18,12,-7,-8,-10,38,30,18,0.00,40.00,18,9,26,0.00
2013-4-5,14,10,0,-6,-10,-16,44,38,32,0.00,40.00,17,13,27,0.00
2013-4-6,9,3,-2,-10,-14,-17,50,45,40,0.00,40.00,15,8,24,0.00
2013-4-7,8,1,-4,-1,-6,-14,83,70,50,0.00,40.00,10,6,15,0.00
2013-4-8,11,4,-3,4,0,-6,85,80,70,0.00,40.00,7,5,12,0.00
2013-4-9,8,5,3,4,1,-2,86,85,79,0.00,40.00,14,5,26,0.00
2013-4-10,10,4,-2,-1,-6,-12,83,64,45,0.00,40.00,16,9,26,0.00
2013-4-11,12,8,0,-4,-7,-12,73,51,41,0.00,40.00,11,4,18,0.00
2013-4-12,22,14,4,-1,-4,-10,56,43,35,0.00,40.00,6,3,11,0.05
2013-4-13,26,18,8,1,-3,-7,53,38,30,0.00,40.00,6,3,11,0.01
2013-4-14,27,20,14,17,6,-6,90,55,34,0.00,40.00,12,4,17,0.01
2013-4-15,30,21,17,17,4,-3,90,49,27,0.00,40.00,16,9,22,0.00
2013-4-16,26,20,14,15,4,-2,91,52,39,0.00,40.00,11,6,18,0.00
2013-4-17,28,20,13,11,5,1,78,51,35,0.00,40.00,12,6,19,0.00
2013-4-18,30,24,18,2,0,-2,41,34,27,0.00,40.00,15,8,20,0.00
2013-4-19,40,28,16,9,4,-2,49,36,26,0.00,40.00,15,5,18,0.01
2013-4-20,44,32,22,9,5,0,39,30,23,0.00,40.00,9,4,15,0.01
2013-4-21,43,35,25,9,6,2,36,29,23,0.00,40.00,8,4,14,0.00
2013-4-22,47,41,30,12,8,2,31,26,21,0.00,40.00,6,3,12,0.00
2013-4-23,44,38,31,14,10,7,38,32,27,0.00,40.00,11,7,19,0.00
2013-4-24,36,30,27,26,20,8,94,71,31,0.00,40.00,17,9,29,0.00
2013-4-25,31,25,18,21,-2,-8,83,33,20,0.00,40.00,10,5,22,0.00
2013-4-26,29,22,15,19,4,-8,90,46,27,0.00,40.00,10,4,14,0.00
2013-4-27,28,23,17,19,4,-12,91,51,22,0.00,40.00,11,6,22,0.00
2013-4-28,33,23,12,8,-3,-13,40,31,25,0.00,40.00,11,5,22,0.00
2013-4-29,29,26,22,26,16,7,92,69,40,0.00,40.00,9,6,18,0.00
2013-4-30,32,27,24,26,24,22,94,87,68,0.00,40.00,9,3,15,0.02
2013-5-1,29,23,18,23,16,8,93,78,53,0.00,40.00,12,8,17,0.03
2013-5-2,34,22,12,11,9,7,85,58,35,0.00,40.00,6,4,11,0.02
2013-5-3,28,23,19,24,20,8,92,87,43,0.00,40.00,11,8,19,0.01
2013-5-4,33,23,17,24,17,13,90,78,45,0.00,40.00,9,4,17,0.16
2013-5-5,36,30,23,16,10,3,67,43,28,0.00,40.00,9,6,19,0.03
2013-5-6,40,33,26,10,6,1,38,31,26,0.00,40.00,9,4,20,0.00
2013-5-7,42,36,27,16,12,7,52,37,27,0.00,40.00,9,5,17,0.00
2013-5-8,47,40,30,17,13,8,43,33,26,0.00,40.00,7,4,15,0.00
2013-5-9,56,45,36,18,16,13,44,31,21,0.00,40.00,7,4,14,0.00
2013-5-10,56,47,38,21,16,-100,42,30,23,0.00,40.00,6,3,11,0.00
2013-5-11,54,48,43,22,18,-100,43,30,26,0.00,40.00,7,4,14,0.00
2013-5-12,47,40,32,26,23,21,67,51,40,0.00,40.00,10,6,19,0.00
2013-5-13,32,23,14,22,7,2,67,49,42,0.00,40.00,11,7,27,0.00
2013-5-14,38,29,20,15,11,7,61,47,36,0.00,40.00,7,3,12,0.00
2013-5-15,45,37,28,18,14,9,44,38,28,0.00,40.00,8,4,19,0.00
2013-5-16,48,37,32,23,6,-100,53,44,34,0.00,40.00,7,4,14,0.00
2013-5-17,40,29,21,28,20,-100,94,81,51,0.00,40.00,11,8,21,0.02
2013-5-18,30,23,16,16,3,-3,83,44,29,0.00,40.00,12,8,21,0.01
2013-5-19,40,31,20,8,3,-1,39,30,25,0.00,40.00,9,6,16,0.00
2013-5-20,51,41,31,11,8,4,33,25,18,0.00,40.00,7,4,14,0.00
2013-5-21,58,47,37,13,10,6,29,22,15,0.00,40.00,6,4,15,0.00
2013-5-22,60,52,42,19,15,8,30,23,17,0.00,40.00,9,4,20,0.00
2013-5-23,58,51,46,35,30,18,52,43,30,0.00,40.00,9,6,16,0.00
2013-5-24,64,55,45,37,34,30,64,46,31,0.00,40.00,9,4,12,0.00
2013-5-25,72,61,51,33,29,26,38,30,22,0.00,40.00,9,4,17,0.00
2013-5-26,74,64,53,32,29,25,33,26,21,0.00,40.00,7,3,13,0.00
2013-5-27,78,67,57,43,34,28,48,29,23,0.00,40.00,11,4,16,0.02
2013-5-28,77,68,58,40,36,33,38,31,24,0.00,40.00,6,3,12,0.02
2013-5-29,78,70,61,36,33,30,31,25,19,0.00,40.00,13,6,18,0.00
2013-5-30,80,70,60,41,35,30,36,28,22,0.00,40.00,11,4,17,0.01
2013-5-31,76,69,60,41,36,33,39,30,20,0.00,40.00,9,5,18,0.01
2013-6-1,73,64,56,40,36,31,40,34,29,0.00,40.00,11,5,18,0.00
2013-6-2,72,63,51,43,38,33,73,41,31,0.00,40.00,11,6,20,0.00
2013-6-3,62,53,47,44,40,36,87,63,38,0.00,40.00,13,4,19,0.00
2013-6-4,58,51,47,45,42,37,92,72,46,0.00,40.00,11,4,18,0.13
2013-6-5,53,47,44,45,41,37,94,78,56,0.00,40.00,10,6,23,0.28
2013-6-6,61,53,47,39,36,32,70,55,37,0.00,40.00,6,4,13,0.01
2013-6-7,66,57,50,46,37,33,75,47,33,0.00,40.00,6,2,12,0.12
2013-6-8,68,60,54,41,37,33,54,42,31,0.00,40.00,6,3,15,0.03
2013-6-9,61,56,51,42,36,30,65,47,39,0.00,40.00,10,6,18,0.00
2013-6-10,54,49,45,43,37,33,91,65,46,0.00,40.00,11,6,18,0.01
2013-6-11,64,53,44,38,35,33,76,52,32,0.00,40.00,7,3,14,0.01
2013-6-12,69,59,50,34,29,26,44,32,22,0.00,40.00,11,5,18,0.00
2013-6-13,75,64,53,35,32,26,42,30,18,0.00,40.00,6,2,12,0.00
2013-6-14,78,70,61,40,34,27,38,27,20,0.00,40.00,6,2,14,0.00
2013-6-15,80,72,62,47,39,29,43,30,23,0.00,40.00,4,2,12,0.00
2013-6-16,84,74,65,52,46,40,43,36,31,0.00,40.00,7,3,14,0.00
2013-6-17,82,75,66,48,41,34,46,31,20,0.00,40.00,12,7,21,0.00
2013-6-18,82,71,62,44,39,34,37,31,25,0.00,40.00,13,6,21,0.00
2013-6-19,83,73,59,45,41,36,46,32,25,0.00,40.00,6,3,18,0.00
2013-6-20,80,67,61,45,39,36,40,36,28,0.00,40.00,7,4,14,0.00
2013-6-22,72,65,52,42,40,37,63,41,31,0.00,40.00,4,2,9,0.01
2013-6-23,78,69,59,44,39,34,43,34,26,0.00,40.00,11,3,16,0.00
2013-6-24,83,73,64,47,43,40,42,35,27,0.00,40.00,11,5,16,0.00
2013-6-25,87,76,67,51,47,43,46,37,26,0.00,40.00,14,6,21,0.00
2013-6-26,84,75,67,54,50,46,49,42,34,0.00,40.00,13,6,21,0.00
2013-6-27,76,70,65,52,51,49,62,50,40,0.00,40.00,7,5,14,0.00
2013-6-28,73,67,63,52,50,47,63,54,41,0.00,40.00,7,4,11,0.00
2013-6-29,77,67,61,54,51,49,67,56,43,0.00,40.00,9,2,15,0.00
2013-6-30,80,69,62,55,50,42,62,51,37,0.00,40.00,9,3,24,0.00
2013-7-1,71,63,56,48,44,36,69,50,39,0.00,40.00,10,4,18,0.00
2013-7-2,65,57,48,45,40,36,83,53,39,0.00,40.00,10,4,16,0.08
2013-7-3,64,55,47,45,41,36,86,60,41,0.00,40.00,9,3,17,0.01
2013-7-4,64,54,45,48,39,35,92,58,38,0.00,40.00,7,4,19,0.13
2013-7-5,62,52,43,43,40,36,94,67,43,0.00,40.00,6,2,12,0.15
2013-7-6,70,59,49,41,38,35,70,48,31,0.00,40.00,7,3,21,0.00
2013-7-7,66,60,54,50,39,35,67,46,38,0.00,40.00,6,2,12,0.04
2013-7-8,59,53,50,51,44,-100,90,74,51,0.00,40.00,10,4,16,0.10
2013-7-9,58,52,46,48,43,40,92,74,52,0.00,40.00,11,6,21,0.01
2013-7-10,51,47,44,47,42,-100,94,86,68,0.00,40.00,9,5,17,0.15
2013-7-11,65,55,47,46,43,40,90,68,44,0.00,40.00,4,2,9,0.01
2013-7-12,76,65,54,40,36,32,56,37,22,0.00,40.00,9,4,13,0.00
2013-7-13,81,72,59,39,36,31,39,27,20,0.00,40.00,11,3,15,0.00
2013-7-14,82,76,65,48,45,35,43,34,26,0.00,40.00,9,4,15,0.00
2013-7-15,72,68,62,47,44,41,54,43,35,0.00,40.00,10,5,19,0.01
2013-7-16,63,58,54,51,48,44,80,69,54,0.00,40.00,7,4,19,0.01
2013-7-17,63,57,52,51,46,43,90,67,50,0.00,40.00,8,4,13,0.00
2013-7-18,67,58,54,53,46,42,92,64,39,0.00,40.00,6,-18,10,0.23
2013-7-19,55,54,52,52,50,44,92,88,72,0.00,40.00,14,7,22,0.53
2013-7-20,58,52,48,49,44,-100,91,79,57,0.00,40.00,13,9,23,0.13
2013-7-21,61,55,49,46,43,41,81,66,48,0.00,40.00,10,5,19,0.02
2013-7-22,68,59,52,45,43,42,75,57,39,0.00,40.00,7,3,12,0.00
2013-7-23,73,66,59,47,45,42,56,46,38,0.00,40.00,7,4,14,0.00
2013-7-24,68,62,58,56,51,46,83,66,48,0.00,40.00,11,6,17,0.03
2013-7-25,68,59,51,52,46,39,91,65,36,0.00,40.00,7,4,17,0.01
2013-7-26,70,63,55,47,42,38,54,46,38,0.00,40.00,11,5,16,0.01
2013-7-27,75,67,60,50,48,44,64,50,35,0.00,40.00,10,6,21,0.00
2013-7-28,83,76,66,50,48,44,49,37,27,0.00,40.00,7,4,15,0.00
2013-7-29,74,69,63,51,48,46,58,48,40,0.00,40.00,10,6,17,0.00
2013-7-30,70,63,55,49,47,44,76,56,44,0.00,40.00,8,4,16,0.00
2013-7-31,76,69,59,49,47,44,62,45,36,0.00,40.00,6,3,12,0.00
2013-8-1,82,73,62,49,46,42,56,39,30,0.00,40.00,5,2,11,0.00
2013-8-2,78,71,63,46,43,40,48,36,26,0.00,40.00,7,3,16,0.00
2013-8-3,76,67,61,45,40,36,41,37,30,0.00,40.00,11,5,22,0.01
2013-8-4,69,62,54,48,44,38,81,52,41,0.00,40.00,8,3,17,0.00
2013-8-5,71,61,52,49,44,38,83,56,34,0.00,40.00,7,2,14,0.00
2013-8-6,78,65,55,46,41,38,59,42,27,0.00,40.00,6,3,15,0.00
2013-8-7,81,71,60,44,40,37,44,33,24,0.00,40.00,6,3,13,0.00
2013-8-8,78,68,58,43,38,33,41,34,27,0.00,40.00,7,3,15,0.00
2013-8-9,69,62,58,45,41,38,55,47,39,0.00,40.00,6,2,16,0.00
2013-8-10,65,57,53,49,43,38,74,58,48,0.00,40.00,4,2,12,0.01
2013-8-11,71,61,53,50,44,40,70,55,38,0.00,40.00,6,3,11,0.01
2013-8-12,69,60,52,51,49,46,91,69,48,0.00,40.00,7,4,14,0.02
2013-8-13,75,64,55,52,49,-100,86,62,41,0.00,40.00,4,2,9,0.01
2013-8-14,66,59,54,49,44,-100,80,62,52,0.00,40.00,10,5,22,0.00
2013-8-15,65,54,52,52,38,-100,91,66,51,0.00,40.00,5,2,11,0.23
2013-8-16,67,56,51,51,45,-100,91,71,43,0.00,40.00,6,2,9,0.21
2013-8-17,67,58,52,49,45,-100,87,63,44,0.00,40.00,7,4,12,0.00
2013-8-18,67,55,48,50,45,36,92,74,31,0.00,40.00,10,5,17,0.00
2013-8-19,60,52,51,43,28,-100,71,53,42,0.00,40.00,7,2,12,0.00
2013-8-20,51,48,45,46,44,-100,92,88,71,0.00,40.00,9,5,18,0.49
2013-8-21,61,48,42,45,40,34,91,75,36,0.00,40.00,5,2,11,0.01
2013-8-22,61,54,48,48,39,31,90,57,42,0.00,40.00,5,2,9,0.09
2013-8-23,50,48,45,48,46,42,91,91,90,0.00,40.00,9,4,16,1.52
2013-8-24,56,47,43,42,33,-100,91,59,37,0.00,40.00,7,4,11,0.01
2013-8-25,58,46,38,30,26,22,60,46,27,0.00,40.00,9,4,14,0.00
2013-8-26,62,52,42,32,27,23,46,37,29,0.00,40.00,12,6,17,0.00
2013-8-27,49,46,44,30,27,24,52,46,38,0.00,40.00,12,5,17,0.00
2013-8-28,53,49,43,41,38,34,85,67,48,0.00,40.00,6,2,9,0.05
2013-8-29,49,47,45,44,42,36,90,83,61,0.00,40.00,10,4,16,0.18
2013-8-30,50,46,42,43,36,29,90,70,47,0.00,40.00,7,4,12,0.04
2013-8-31,45,40,37,31,26,-100,71,56,50,0.00,40.00,4,2,8,0.01
2013-9-1,43,40,36,37,30,21,80,67,48,0.00,40.00,8,4,15,0.07
2013-9-2,53,46,42,48,42,37,91,86,78,0.00,40.00,7,4,15,0.18
2013-9-3,65,53,47,47,42,40,89,66,44,0.00,40.00,6,3,16,0.13
2013-9-4,55,49,45,47,42,35,90,76,56,0.00,40.00,6,3,14,0.14
2013-9-5,54,47,40,41,38,33,90,72,51,0.00,40.00,9,4,16,0.01
2013-9-6,49,46,42,42,37,34,87,71,54,0.00,40.00,12,5,20,0.01
2013-9-7,49,46,42,45,41,-100,92,86,74,0.00,40.00,6,2,11,0.01
2013-9-8,47,45,42,44,42,40,92,91,86,0.00,40.00,7,4,14,0.32
2013-9-9,55,47,41,45,40,35,92,76,52,0.00,40.00,5,3,12,0.03
2013-9-10,60,53,48,38,35,33,56,50,38,0.00,40.00,4,2,13,0.00
2013-9-11,53,47,42,43,39,35,92,75,51,0.00,40.00,17,6,28,0.73
2013-9-12,56,46,37,42,38,33,91,73,57,0.00,40.00,17,4,27,0.20
2013-9-13,50,47,44,42,38,33,89,71,54,0.00,40.00,5,2,11,0.02
2013-9-14,47,43,41,43,37,-100,91,82,45,0.00,40.00,7,4,12,0.11
2013-9-15,51,42,36,31,27,22,73,56,36,0.00,40.00,9,3,16,0.01
2013-9-16,50,42,35,22,20,18,50,42,30,0.00,40.00,13,9,23,0.00
2013-9-17,37,32,26,26,19,17,91,61,48,0.00,40.00,13,6,23,0.00
2013-9-18,29,28,26,27,25,22,92,88,77,0.00,40.00,6,2,9,0.09
2013-9-19,33,29,26,27,25,23,91,84,68,0.00,40.00,6,2,9,0.07
2013-9-20,31,28,26,25,21,16,91,77,54,0.00,40.00,6,2,8,0.02
2013-9-21,36,28,25,19,14,-100,75,56,41,0.00,40.00,7,4,14,0.00
2013-9-22,28,25,24,24,20,14,91,81,54,0.00,40.00,9,5,14,0.00
2013-9-23,32,28,24,23,20,15,91,72,56,0.00,40.00,7,3,11,0.14
2013-9-24,36,32,27,18,16,14,60,52,42,0.00,40.00,7,4,19,0.01
2013-9-25,48,40,33,33,27,18,80,59,43,0.00,40.00,7,4,19,0.02
2013-9-26,41,37,35,35,33,31,91,84,73,0.00,40.00,9,3,15,0.01
2013-9-27,53,44,39,33,28,26,75,55,35,0.00,40.00,7,3,17,0.01
2013-9-28,42,36,34,33,30,-100,93,78,56,0.00,40.00,7,3,14,0.02
2013-9-29,38,35,34,35,31,23,93,84,59,0.00,40.00,6,3,12,0.07
2013-9-30,35,32,31,26,24,22,79,72,62,0.00,40.00,6,3,11,0.01
2013-10-1,33,32,31,28,27,26,88,83,78,0.00,40.00,2,1,4,0.02
2013-10-2,39,34,29,29,28,26,90,78,62,0.00,40.00,4,2,14,0.01
2013-10-3,46,39,34,30,27,25,83,61,47,0.00,40.00,7,4,17,0.00
2013-10-4,39,35,30,29,28,26,91,74,60,0.00,40.00,8,4,13,0.00
2013-10-5,39,32,27,32,28,26,93,85,60,0.00,40.00,7,4,19,0.00
2013-10-6,35,33,29,28,26,24,92,76,66,0.00,40.00,7,4,17,0.00
2013-10-7,31,30,29,29,28,27,92,92,92,0.00,40.00,6,3,19,0.04
2013-10-8,42,37,30,30,26,21,92,67,52,0.00,40.00,9,6,23,0.02
2013-10-9,36,31,29,31,29,27,93,92,71,0.00,40.00,16,10,32,0.03
2013-10-10,33,30,25,28,25,20,93,82,71,0.00,40.00,8,5,16,0.04
2013-10-11,42,35,32,25,23,22,71,62,48,0.00,40.00,6,4,14,0.01
2013-10-12,47,40,35,26,24,-100,66,52,41,0.00,40.00,7,5,16,0.00
2013-10-13,44,41,34,33,24,22,92,52,43,0.00,40.00,10,6,24,0.11
2013-10-14,42,38,34,33,29,27,92,72,59,0.00,40.00,9,5,22,0.12
2013-10-15,45,39,36,33,28,26,77,62,52,0.00,40.00,12,5,20,0.01
2013-10-16,48,46,42,38,32,29,86,58,47,0.00,40.00,8,5,21,0.05
2013-10-17,52,48,45,34,29,25,64,48,40,0.00,40.00,10,6,22,0.00
2013-10-18,51,45,42,31,26,18,64,48,37,0.00,40.00,11,6,20,0.00
2013-10-19,50,42,37,33,25,-100,78,51,40,0.00,40.00,12,6,24,0.00
2013-10-20,44,39,36,30,26,25,75,61,50,0.00,40.00,10,5,15,0.00
2013-10-21,39,35,29,27,24,21,72,63,55,0.00,40.00,6,4,12,0.00
2013-10-22,35,32,27,25,21,19,85,65,56,0.00,40.00,6,3,15,0.00
2013-10-23,30,26,22,24,22,19,93,83,73,0.00,40.00,7,3,12,0.00
2013-10-24,34,25,20,22,18,13,93,77,44,0.00,40.00,10,4,19,0.00
2013-10-25,36,32,25,21,18,15,78,56,44,0.00,40.00,9,5,16,0.00
2013-10-26,33,27,22,22,20,-100,89,74,64,0.00,40.00,11,4,22,0.00
2013-10-27,40,37,33,33,21,16,90,52,40,0.00,40.00,12,6,26,0.04
2013-10-28,50,40,33,35,31,-100,93,72,43,0.00,40.00,12,6,20,0.17
2013-10-29,36,32,28,34,29,22,93,89,67,0.00,40.00,13,7,28,0.26
2013-10-30,35,32,28,27,23,20,91,71,55,0.00,40.00,9,6,17,0.01
2013-10-31,31,25,22,23,21,20,90,85,64,0.00,40.00,7,3,12,0.01
2013-11-1,24,22,18,21,19,14,90,90,89,0.00,40.00,6,2,11,0.00
2013-11-2,25,21,17,19,16,-100,89,83,73,0.00,40.00,7,4,17,0.00
2013-11-3,29,26,22,19,18,17,83,71,61,0.00,40.00,9,6,22,0.00
2013-11-4,27,25,23,17,15,13,71,63,56,0.00,40.00,11,6,21,0.00
2013-11-5,23,20,12,19,15,8,90,82,65,0.00,40.00,12,6,21,0.00
2013-11-6,14,11,7,11,7,2,86,82,69,0.00,40.00,10,4,21,0.00
2013-11-7,17,12,9,3,1,-1,70,58,47,0.00,40.00,10,6,24,0.00
2013-11-8,12,4,0,8,0,-4,84,81,67,0.00,40.00,10,4,21,0.00
2013-11-9,23,15,11,15,10,-100,86,82,78,0.00,40.00,11,8,21,0.00
2013-11-10,30,26,23,29,23,15,94,87,72,0.00,40.00,15,8,28,0.00
2013-11-11,23,16,11,16,10,4,85,74,66,0.00,40.00,9,7,17,0.00
2013-11-12,12,10,8,5,4,3,83,77,66,0.00,40.00,10,4,21,0.00
2013-11-13,31,13,8,29,8,3,92,82,76,0.00,40.00,10,5,21,0.00
2013-11-20,-12,-15,-19,-17,-20,-25,76,76,75,0.00,40.00,4,2,10,0.00
2013-11-21,0,-13,-19,-5,-18,-25,79,76,75,0.00,40.00,6,3,16,0.00
2013-11-22,9,6,0,6,2,-5,83,82,79,0.00,40.00,7,3,16,0.00
2013-11-23,12,4,0,7,0,-100,83,82,81,0.00,40.00,7,4,16,0.00
2013-11-24,18,15,11,12,10,7,85,80,76,0.00,40.00,7,4,16,0.00
2013-11-25,14,12,10,11,9,7,85,85,84,0.00,40.00,6,2,9,0.00
2013-11-26,10,7,2,2,0,-3,80,73,67,0.00,40.00,4,2,6,0.00
2013-11-27,4,0,-3,-1,-5,-8,80,79,79,0.00,40.00,7,4,14,0.00
2013-11-28,1,0,-2,-3,-5,-7,79,79,79,0.00,40.00,9,6,17,0.00
2013-11-29,-1,-3,-8,-6,-8,-13,79,79,77,0.00,40.00,7,3,10,0.00
2013-11-30,-4,-7,-10,-9,-14,-100,78,76,77,0.00,40.00,2,1,5,0.00
2013-12-1,-10,-11,-12,-15,-16,-17,76,76,76,0.00,40.00,4,3,11,0.00
2013-12-2,-1,-3,-6,-7,-8,-12,78,76,75,0.00,40.00,10,7,16,0.00
2013-12-3,12,6,-2,2,-2,-8,75,69,61,0.00,40.00,9,6,17,0.00
2013-12-4,21,13,5,5,2,-3,69,60,47,0.00,40.00,8,6,22,0.00
2013-12-5,20,17,13,11,7,4,76,63,55,0.00,40.00,12,8,23,0.00
2013-12-6,31,22,18,22,11,8,71,64,59,0.00,40.00,11,6,22,0.00
2013-12-7,35,30,24,30,23,-100,90,76,67,0.00,40.00,7,4,12,0.25
2013-12-8,36,32,29,31,30,25,93,91,81,0.00,40.00,11,4,19,0.11
2013-12-9,31,26,22,29,24,19,93,91,89,0.00,40.00,5,2,11,0.01
2013-12-10,22,10,4,19,5,-5,89,81,66,0.00,40.00,0,0,0,0.00
2013-12-11,4,1,-2,-5,-11,-15,67,56,50,0.00,40.00,20,15,29,0.00
2013-12-12,0,-3,-5,-11,-16,-19,72,52,47,0.00,40.00,28,20,39,0.00
2013-12-13,-3,-4,-6,-11,-16,-19,72,55,50,0.00,40.00,19,14,32,0.00
2013-12-14,-4,-7,-10,-10,-15,-100,74,70,53,0.00,40.00,12,6,19,0.00
2013-12-15,-10,-14,-18,-16,-20,-25,74,73,72,0.00,40.00,10,7,17,0.00
2013-12-16,-16,-18,-22,-22,-25,-29,72,72,71,0.00,40.00,6,3,9,0.00
2013-12-17,-8,-16,-21,-14,-22,-28,74,72,71,0.00,40.00,7,5,12,0.00
2013-12-18,4,-3,-8,-2,-9,-14,77,76,73,0.00,40.00,9,6,20,0.00
2013-12-19,6,3,0,-1,-3,-7,79,74,65,0.00,40.00,9,5,17,0.00
2013-12-20,7,5,3,-1,-2,-4,74,71,68,0.00,40.00,7,5,20,0.00
2013-12-21,9,7,4,5,2,-100,82,79,72,0.00,40.00,9,6,22,0.00
2013-12-22,10,8,3,5,3,-3,82,81,75,0.00,40.00,16,9,28,0.00
2013-12-23,4,2,-3,-2,-4,-7,79,77,68,0.00,40.00,17,8,25,0.00
2013-12-24,-1,-3,-4,-6,-8,-9,79,78,78,0.00,40.00,5,3,9,0.00
2013-12-27,-5,-10,-12,-16,-19,-21,65,62,57,0.00,40.00,8,5,17,0.00
2013-12-28,3,0,-6,-4,-10,-100,76,65,59,0.00,40.00,7,4,18,0.00
2013-12-29,6,4,1,0,-2,-4,80,78,73,0.00,40.00,7,4,15,0.00
2013-12-30,7,5,3,-1,-1,-2,76,74,70,0.00,40.00,7,4,14,0.00
2013-12-31,17,10,8,5,1,-1,68,66,63,0.00,40.00,9,6,22,0.00
2014-1-1,18,17,14,9,7,5,66,64,63,0.00,40.00,9,5,22,0.00
2014-1-2,11,7,5,7,2,1,83,82,78,0.00,40.00,8,4,15,0.00